Location: Unspecified
(0.0000°N, 0.0000°E)
Time: 02:12:41
(UTC+00:00)

Vanguard 1 Rocket - Pass Details

Date: 13 December 2017
Orbit: 656 x 4222 km, 34.3° (Epoch: 20 January)

Event Time Altitude Azimuth Distance (km) Brightness Sun altitude
Rises 22:49:52 0° 317° (NW) 7,324 12.0 -62.0°
Enters shadow 22:54:13 - 322° (NW) 6,716 11.6 -62.6°
Exits shadow 23:36:04 22° 100° (E) 5,827 11.3 -66.4°
Drops below altitude 10° 23:41:00 10° 107° (ESE) 6,465 11.7 -66.6°
Sets 23:45:24 0° 111° (ESE) 7,121 12.0 -66.7°
